Location: Newark
(49.1881°N, 7.3692°E)
Time: 11:14:28
(UTC+00:00)

Envisat - Visible Passes

Search period start: 21 August 2019 00:00
Search period end: 31 August 2019 00:00
Orbit: 764 x 766 km, 98.1° (Epoch: 21 August)

Date Brightness Start Highest point End Pass type
(mag) Time Alt. Az. Time Alt. Az. Time Alt. Az.
22 Aug 5.9 19:03:52 10° SW 19:07:11 17° W 19:10:31 10° NW visible
27 Aug 6.1 19:19:26 10° WSW 19:21:40 13° W 19:23:53 10° WNW visible
30 Aug 5.9 19:07:11 10° SW 19:10:15 16° W 19:13:20 10° NW visible
